Date String (YYYY-MM-DD hh:mm:ss) UTC,Instrument flags,Ambient pressure (hPa),Sample flow (lpm),Bypass flow (lpm),Sample temperature (°C),Ambient temperature (°C),ASC tube jacket temperature (°C),LED temperature (°C),Box temperature (°C),Sample RH (%),Span deviation,Mass concentration (μg/m³),Mass concentration (μg/m³),Mass concentration (μg/m³)
DateTimeUTC,F1_M11,P_M11,Q1_M11,Q2_M11,T1_M11,T2_M11,T3_M11,T4_M11,T5_M11,U1_M11,ZSPAN_M11,X0_M11,X2_M11,X1_M11
2022-05-22 01:00:00,,0831.7,4.99,0.00,23.1,22.3,00.0,32.1,24.9,20.6,0000.0,0000.15,0000.03,0000.01
2022-05-22 01:01:00,,0831.6,5.01,0.00,23.1,22.3,00.0,32.1,24.9,20.0,0000.0,0000.16,0000.04,0000.01
2022-05-22 01:02:00,,0831.6,5.00,0.00,23.1,22.3,00.0,32.1,24.9,20.2,0000.0,0000.16,0000.04,0000.01
2022-05-22 01:03:00,,0831.7,5.00,0.00,23.1,22.2,00.0,32.1,24.9,20.4,0000.0,0000.08,0000.03,0000.01
2022-05-22 01:04:00,,0831.7,4.99,0.00,23.1,22.2,00.0,32.1,24.9,20.8,0000.0,0000.05,0000.03,0000.01
2022-05-22 01:05:00,,0831.7,4.99,0.00,23.1,22.2,00.0,32.1,24.9,20.2,0000.0,0000.04,0000.02,0000.00
2022-05-22 01:06:00,,0831.7,5.01,0.00,23.1,22.2,00.0,32.1,24.9,20.3,0000.0,0000.04,0000.02,0000.00
2022-05-22 01:07:00,,0831.7,4.99,0.00,23.1,22.2,00.0,32.1,24.8,20.4,0000.0,0000.04,0000.02,0000.00
2022-05-22 01:08:00,,0831.7,5.00,0.00,23.0,22.2,00.0,32.1,24.8,20.3,0000.0,0000.04,0000.02,0000.00
2022-05-22 01:09:00,,0831.7,5.00,0.00,23.0,22.2,00.0,32.1,24.8,20.5,0000.0,0000.04,0000.02,0000.00
2022-05-22 01:10:00,,0831.7,5.01,0.00,23.0,22.2,00.0,32.1,24.8,21.1,0000.0,0000.04,0000.02,0000.00
2022-05-22 01:11:00,,0831.7,4.99,0.00,23.0,22.2,00.0,32.1,24.8,20.9,0000.0,0000.02,0000.01,0000.00
2022-05-22 01:12:00,,0831.7,5.00,0.00,23.0,22.2,00.0,32.1,24.8,20.7,0000.0,0000.01,0000.01,0000.00
2022-05-22 01:13:00,,0831.7,4.99,0.00,23.0,22.2,00.0,32.1,24.8,20.6,0000.0,0000.01,0000.01,0000.00
2022-05-22 01:14:00,,0831.7,5.00,0.00,23.0,22.1,00.0,32.1,24.8,21.0,0000.0,0000.01,0000.01,0000.00
2022-05-22 01:15:00,,0831.7,4.99,0.00,23.0,22.1,00.0,32.1,24.8,20.9,0000.0,0000.01,0000.01,0000.00
2022-05-22 01:16:00,,0831.7,5.00,0.00,23.0,22.1,00.0,32.1,24.8,20.6,0000.0,0000.01,0000.01,0000.00
2022-05-22 01:17:00,,0831.7,5.00,0.00,23.0,22.1,00.0,32.1,24.8,20.4,0000.0,0000.01,0000.01,0000.00
2022-05-22 01:18:00,,0831.7,4.99,0.00,23.0,22.1,00.0,32.0,24.8,21.0,0000.0,0000.00,0000.00,0000.00
2022-05-22 01:19:00,,0831.7,5.01,0.00,23.0,22.1,00.0,32.0,24.8,20.5,0000.0,0000.00,0000.00,0000.00
2022-05-22 01:20:00,,0831.7,4.99,0.00,23.0,22.1,00.0,32.0,24.7,20.7,0000.0,0000.00,0000.00,0000.00
2022-05-22 01:21:00,,0831.7,5.00,0.00,23.0,22.1,00.0,32.0,24.8,21.0,0000.0,0000.00,0000.00,0000.00
2022-05-22 01:22:00,,0831.6,5.00,0.00,23.0,22.1,00.0,32.0,24.8,21.1,0000.0,0000.10,0000.01,0000.00
2022-05-22 01:23:00,,0831.7,5.00,0.00,23.0,22.1,00.0,32.0,24.8,21.2,0000.0,0000.13,0000.01,0000.00
2022-05-22 01:24:00,,0831.7,5.00,0.00,22.9,22.1,00.0,32.0,24.7,20.9,0000.0,0000.13,0000.01,0000.00
2022-05-22 01:25:00,,0831.7,4.99,0.00,22.9,22.0,00.0,32.0,24.7,20.7,0000.0,0000.13,0000.01,0000.00
2022-05-22 01:26:00,,0831.7,5.00,0.00,22.9,22.0,00.0,32.0,24.7,20.9,0000.0,0000.16,0000.02,0000.00
2022-05-22 01:27:00,,0831.6,5.01,0.00,22.9,22.0,00.0,32.0,24.7,21.0,0000.0,0000.19,0000.03,0000.00
2022-05-22 01:28:00,,0831.7,5.00,0.00,22.9,22.1,00.0,32.0,24.8,21.0,0000.0,0000.22,0000.04,0000.00
2022-05-22 01:29:00,,0831.6,5.00,0.00,22.9,22.1,00.0,32.0,24.7,20.9,0000.0,0000.22,0000.04,0000.00
2022-05-22 01:30:00,,0831.7,5.00,0.00,22.9,22.1,00.0,32.0,24.8,21.2,0000.0,0000.22,0000.04,0000.00
2022-05-22 01:31:00,,0831.6,5.00,0.00,22.9,22.1,00.0,32.0,24.8,21.3,0000.0,0000.22,0000.04,0000.00
2022-05-22 01:32:00,,0831.7,5.00,0.00,22.9,22.2,00.0,32.0,24.8,21.6,0000.0,0000.23,0000.04,0000.01
2022-05-22 01:33:00,,0831.7,5.01,0.00,22.9,22.2,00.0,32.0,24.8,21.5,0000.0,0000.14,0000.04,0000.01
2022-05-22 01:34:00,,0831.7,5.00,0.00,22.9,22.1,00.0,32.0,24.8,21.0,0000.0,0000.10,0000.03,0000.01
2022-05-22 01:35:00,,0831.9,4.99,0.00,22.9,22.1,00.0,32.0,24.8,20.5,0000.0,0000.10,0000.03,0000.00
2022-05-22 01:36:00,,0832.0,5.01,0.00,22.9,22.1,00.0,32.0,24.8,20.2,0000.0,0000.09,0000.03,0000.00
2022-05-22 01:37:00,,0832.0,5.00,0.00,22.9,22.1,00.0,32.0,24.8,20.1,0000.0,0000.07,0000.03,0000.00
2022-05-22 01:38:00,,0832.0,5.00,0.00,22.9,22.1,00.0,32.0,24.8,20.5,0000.0,0000.04,0000.02,0000.00
2022-05-22 01:39:00,,0832.1,4.99,0.00,22.9,22.2,00.0,32.0,24.8,20.5,0000.0,0000.01,0000.01,0000.00
2022-05-22 01:40:00,,0832.1,5.00,0.00,22.9,22.2,00.0,32.0,24.8,20.8,0000.0,0000.01,0000.01,0000.00
2022-05-22 01:41:00,,0832.1,5.00,0.00,22.9,22.2,00.0,32.0,24.8,20.8,0000.0,0000.01,0000.00,0000.00
2022-05-22 01:42:00,,0832.1,5.01,0.00,22.9,22.2,00.0,32.0,24.8,21.0,0000.0,0000.02,0000.01,0000.01
2022-05-22 01:43:00,,0832.1,5.00,0.00,22.9,22.2,00.0,32.0,24.8,20.5,0000.0,0000.02,0000.01,0000.01
2022-05-22 01:44:00,,0832.1,5.00,0.00,22.9,22.1,00.0,32.0,24.8,20.0,0000.0,0000.02,0000.01,0000.01
2022-05-22 01:45:00,,0832.1,5.01,0.00,22.9,22.1,00.0,32.0,24.8,20.0,0000.0,0000.02,0000.01,0000.01
2022-05-22 01:46:00,,0832.1,5.00,0.00,22.9,22.1,00.0,32.0,24.8,20.9,0000.0,0000.02,0000.01,0000.01
2022-05-22 01:47:00,,0832.1,4.99,0.00,22.9,22.1,00.0,32.0,24.8,21.2,0000.0,0000.03,0000.01,0000.01
2022-05-22 01:48:00,,0832.1,5.01,0.00,22.9,22.1,00.0,32.0,24.8,21.2,0000.0,0000.04,0000.02,0000.01
2022-05-22 01:49:00,,0832.0,4.99,0.00,22.9,22.2,00.0,32.0,24.8,21.3,0000.0,0000.06,0000.03,0000.01
2022-05-22 01:50:00,,0832.1,4.99,0.00,22.9,22.2,00.0,32.0,24.8,20.8,0000.0,0000.53,0000.03,0000.01
2022-05-22 01:51:00,,0832.1,5.00,0.00,23.0,22.2,00.0,32.0,24.8,20.9,0000.0,0001.32,0000.03,0000.01
2022-05-22 01:52:00,,0832.1,4.99,0.00,23.0,22.2,00.0,32.0,24.8,20.9,0000.0,0001.32,0000.03,0000.01
2022-05-22 01:53:00,,0832.1,5.01,0.00,23.0,22.2,00.0,32.0,24.8,20.6,0000.0,0001.30,0000.02,0000.00
2022-05-22 01:54:00,,0832.1,5.00,0.00,23.0,22.2,00.0,32.0,24.8,20.3,0000.0,0001.39,0000.03,0000.00
2022-05-22 01:55:00,,0832.1,5.00,0.00,23.0,22.2,00.0,32.0,24.9,19.8,0000.0,0001.41,0000.03,0000.00
2022-05-22 01:56:00,,0832.1,5.00,0.00,23.0,22.2,00.0,32.0,24.9,19.9,0000.0,0001.41,0000.03,0000.00
2022-05-22 01:57:00,,0832.1,5.01,0.00,23.0,22.2,00.0,32.0,24.9,19.7,0000.0,0001.41,0000.03,0000.00
2022-05-22 01:58:00,,0832.1,5.00,0.00,23.0,22.2,00.0,32.0,24.9,19.5,0000.0,0001.41,0000.03,0000.00
2022-05-22 01:59:00,,0832.1,4.99,0.00,23.0,22.3,00.0,32.0,24.9,19.7,0000.0,0001.40,0000.02,0000.00
